Вернуться в каталог

STARLINK-1579

АктивенСвязьVLEO
NORAD 46083·PAYLOAD·🇺🇸 United States

Запущен Aug 7, 2020 с Cape Canaveral Space Force Station

Loading…

Ближайшие Пролёты (ближайшие 24 часа)

TLE

СвежийSource: CelesTrak SupGP

Эпоха: Sep 15, 2026, 02:49 UTC

1 46083C 20055BJ  26258.11784722  .00020770  00000+0  66766-3 0  2585
2 46083  53.1585 299.6346 0001400  87.6505 352.7593 15.31703019    10

Отслеживайте STARLINK-1579 в реальном времени с AllMySat

Download on the App Store